| time (UTC) | temp C | wind direction | speed KPH | gust KPH | rain 1hr cm | rain 24hr cm | rain mn cm | humidity % | barometer mb |
| 20260903221500 | 19 | 254 | 9.7 | 22.5 | 0.00 | 0.00 | 0.00 | 82 | 1014.5 |
| 20260903220959 | 19 | 248 | 14.5 | 22.5 | 0.00 | 0.00 | 0.00 | 82 | 1014.4 |
| 20260903220456 | 19 | 250 | 12.9 | 22.5 | 0.00 | 0.00 | 0.00 | 82 | 1014.5 |
| 20260903215958 | 19 | 248 | 12.9 | 27.4 | 0.00 | 0.00 | 0.00 | 82 | 1014.6 |
| 20260903215457 | 19 | 272 | 11.3 | 27.4 | 0.00 | 0.00 | 0.00 | 83 | 1014.5 |
| 20260903214959 | 19 | 255 | 11.3 | 27.4 | 0.00 | 0.00 | 0.00 | 83 | 1014.5 |
| 20260903214457 | 19 | 254 | 12.9 | 27.4 | 0.00 | 0.00 | 0.00 | 83 | 1014.5 |
| 20260903213959 | 19 | 243 | 11.3 | 27.4 | 0.00 | 0.00 | 0.00 | 82 | 1014.4 |
| 20260903213458 | 19 | 240 | 14.5 | 27.4 | 0.00 | 0.00 | 0.00 | 82 | 1014.8 |
| 20260903212957 | 19 | 261 | 12.9 | 27.4 | 0.00 | 0.00 | 0.00 | 82 | 1014.9 |
| 20260903212456 | 20 | 278 | 9.7 | 24.1 | 0.00 | 0.00 | 0.00 | 82 | 1015.0 |
| 20260903211957 | 20 | 233 | 9.7 | 33.8 | 0.00 | 0.00 | 0.00 | 82 | 1015.2 |
| 20260903211457 | 20 | 285 | 14.5 | 33.8 | 0.00 | 0.00 | 0.00 | 81 | 1015.3 |
| 20260903210957 | 20 | 268 | 11.3 | 25.7 | 0.00 | 0.00 | 0.00 | 81 | 1015.2 |
| 20260903210457 | 20 | 259 | 9.7 | 24.1 | 0.00 | 0.00 | 0.00 | 81 | 1015.2 |
| 20260903205956 | 20 | 265 | 8.0 | 17.7 | 0.00 | 0.00 | 0.00 | 80 | 1015.2 |
| 20260903205459 | 20 | 244 | 8.0 | 14.5 | 0.00 | 0.00 | 0.00 | 80 | 1015.3 |
| 20260903204956 | 20 | 281 | 4.8 | 16.1 | 0.00 | 0.00 | 0.00 | 80 | 1015.2 |
| 20260903204455 | 20 | 262 | 6.4 | 16.1 | 0.00 | 0.00 | 0.00 | 80 | 1015.1 |
| 20260903203955 | 20 | 261 | 4.8 | 14.5 | 0.00 | 0.00 | 0.00 | 80 | 1015.2 |
| 20260903203455 | 20 | 269 | 6.4 | 14.5 | 0.00 | 0.00 | 0.00 | 80 | 1015.1 |
| 20260903202950 | 20 | 245 | 4.8 | 14.5 | 0.00 | 0.00 | 0.00 | 80 | 1015.1 |
| 20260903202454 | 20 | 281 | 6.4 | 11.3 | 0.00 | 0.00 | 0.00 | 79 | 1015.1 |
| 20260903201952 | 20 | 269 | 6.4 | 11.3 | 0.00 | 0.00 | 0.00 | 79 | 1015.1 |
| 20260903201809 | 20 | 254 | 6.4 | 11.3 | 0.00 | 0.00 | 0.00 | 79 | 1015.2 |
| 20260903200949 | 20 | 243 | 6.4 | 14.5 | 0.00 | 0.00 | 0.00 | 79 | 1015.2 |
| 20260903200452 | 20 | 258 | 6.4 | 14.5 | 0.00 | 0.00 | 0.00 | 78 | 1015.2 |
| 20260903195950 | 20 | 262 | 4.8 | 16.1 | 0.00 | 0.00 | 0.00 | 78 | 1015.2 |
| 20260903195448 | 20 | 245 | 4.8 | 16.1 | 0.00 | 0.00 | 0.00 | 78 | 1015.2 |
| 20260903194947 | 20 | 251 | 3.2 | 11.3 | 0.00 | 0.00 | 0.00 | 77 | 1015.3 |
| 20260903194502 | 20 | 259 | 4.8 | 11.3 | 0.00 | 0.00 | 0.00 | 77 | 1015.5 |
| 20260903193949 | 20 | 272 | 3.2 | 9.7 | 0.00 | 0.00 | 0.00 | 76 | 1015.4 |
| 20260903193447 | 20 | 259 | 4.8 | 9.7 | 0.00 | 0.00 | 0.00 | 76 | 1015.3 |
| 20260903192948 | 20 | 250 | 4.8 | 9.7 | 0.00 | 0.00 | 0.00 | 75 | 1015.3 |
| 20260903192446 | 20 | 285 | 4.8 | 11.3 | 0.00 | 0.00 | 0.00 | 75 | 1015.4 |
| 20260903192319 | 20 | 237 | 4.8 | 11.3 | 0.00 | 0.00 | 0.00 | 75 | 1015.4 |
| 20260903191443 | 21 | 257 | 4.8 | 9.7 | 0.00 | 0.00 | 0.00 | 74 | 1015.5 |
| 20260903190943 | 21 | 271 | 3.2 | 8.0 | 0.00 | 0.00 | 0.00 | 74 | 1015.6 |
| 20260903190444 | 21 | 251 | 3.2 | 9.7 | 0.00 | 0.00 | 0.00 | 73 | 1015.6 |
| 20260903185947 | 21 | 265 | 3.2 | 11.3 | 0.00 | 0.00 | 0.00 | 73 | 1015.5 |
| 20260903185446 | 21 | 298 | 3.2 | 14.5 | 0.00 | 0.00 | 0.00 | 72 | 1015.5 |
| 20260903184944 | 21 | 269 | 3.2 | 14.5 | 0.00 | 0.00 | 0.00 | 72 | 1015.5 |
| 20260903184445 | 21 | 281 | 3.2 | 11.3 | 0.00 | 0.00 | 0.00 | 71 | 1015.5 |
| 20260903183941 | 21 | 241 | 6.4 | 19.3 | 0.00 | 0.00 | 0.00 | 71 | 1015.5 |
| 20260903183446 | 21 | 288 | 3.2 | 19.3 | 0.00 | 0.00 | 0.00 | 71 | 1015.6 |
| 20260903182940 | 21 | 282 | 8.0 | 16.1 | 0.00 | 0.00 | 0.00 | 71 | 1015.6 |
| 20260903182440 | 21 | 247 | 3.2 | 14.5 | 0.00 | 0.00 | 0.00 | 70 | 1015.7 |
| 20260903181938 | 21 | 240 | 8.0 | 19.3 | 0.00 | 0.00 | 0.00 | 70 | 1015.7 |
| 20260903181438 | 21 | 264 | 9.7 | 19.3 | 0.00 | 0.00 | 0.00 | 70 | 1015.7 |
| 20260903180940 | 21 | 279 | 8.0 | 19.3 | 0.00 | 0.00 | 0.00 | 69 | 1015.6 |
| 20260903180438 | 22 | 324 | 11.3 | 24.1 | 0.00 | 0.00 | 0.00 | 69 | 1015.7 |
| 20260903175936 | 22 | 286 | 12.9 | 24.1 | 0.00 | 0.00 | 0.00 | 68 | 1015.7 |
| 20260903175436 | 22 | 257 | 6.4 | 22.5 | 0.00 | 0.00 | 0.00 | 67 | 1015.7 |
| 20260903175259 | 22 | 289 | 14.5 | 22.5 | 0.00 | 0.00 | 0.00 | 66 | 1015.9 |
| 20260903174449 | 22 | 295 | 11.3 | 22.5 | 0.00 | 0.00 | 0.00 | 65 | 1015.8 |
| 20260903174257 | 22 | 244 | 9.7 | 22.5 | 0.00 | 0.00 | 0.00 | 64 | 1015.6 |
| 20260903173741 | 23 | 290 | 14.5 | 27.4 | 0.00 | 0.00 | 0.00 | 64 | 1015.7 |
| 20260903172933 | 23 | 293 | 9.7 | 27.4 | 0.00 | 0.00 | 0.00 | 64 | 1015.6 |
| 20260903172432 | 23 | 240 | 14.5 | 22.5 | 0.00 | 0.00 | 0.00 | 64 | 1015.6 |
| 20260903171933 | 23 | 278 | 11.3 | 20.9 | 0.00 | 0.00 | 0.00 | 64 | 1015.6 |
| 20260903171745 | 23 | 276 | 8.0 | 27.4 | 0.00 | 0.00 | 0.00 | 63 | 1015.6 |
| 20260903171356 | 23 | 241 | 12.9 | 24.1 | 0.00 | 0.00 | 0.00 | 63 | 1015.4 |
| 20260903171352 | 23 | 305 | 9.7 | 27.4 | 0.00 | 0.00 | 0.00 | 62 | 1015.4 |
| 20260903165928 | 23 | 278 | 9.7 | 19.3 | 0.00 | 0.00 | 0.00 | 63 | 1015.3 |
| 20260903165428 | 23 | 271 | 9.7 | 30.6 | 0.00 | 0.00 | 0.00 | 62 | 1015.3 |
| 20260903164925 | 23 | 259 | 16.1 | 30.6 | 0.00 | 0.00 | 0.00 | 62 | 1015.4 |
| 20260903164733 | 24 | 262 | 11.3 | 25.7 | 0.00 | 0.00 | 0.00 | 62 | 1015.4 |
| 20260903163925 | 24 | 276 | 11.3 | 25.7 | 0.00 | 0.00 | 0.00 | 63 | 1015.5 |
| 20260903163421 | 24 | 338 | 11.3 | 20.9 | 0.00 | 0.00 | 0.00 | 65 | 1015.5 |
| 20260903162920 | 24 | 238 | 12.9 | 22.5 | 0.00 | 0.00 | 0.00 | 65 | 1015.3 |
| 20260903162528 | 24 | 259 | 12.9 | 27.4 | 0.00 | 0.00 | 0.00 | 64 | 1015.4 |
| 20260903161726 | 24 | 312 | 9.7 | 16.1 | 0.00 | 0.00 | 0.00 | 64 | 1015.5 |
| 20260903160944 | 24 | 237 | 9.7 | 24.1 | 0.00 | 0.00 | 0.00 | 64 | 1015.4 |
| 20260903160606 | 24 | 274 | 12.9 | 24.1 | 0.00 | 0.00 | 0.00 | 64 | 1015.6 |
| 20260903154909 | 24 | 266 | 14.5 | 25.7 | 0.00 | 0.00 | 0.00 | 64 | 1015.8 |
| 20260903154405 | 24 | 262 | 14.5 | 24.1 | 0.00 | 0.00 | 0.00 | 65 | 1015.6 |
| 20260903153904 | 24 | 250 | 9.7 | 19.3 | 0.00 | 0.00 | 0.00 | 65 | 1015.9 |
| 20260903153404 | 23 | 257 | 9.7 | 20.9 | 0.00 | 0.00 | 0.00 | 66 | 1016.0 |
| 20260903153241 | 23 | 265 | 11.3 | 22.5 | 0.00 | 0.00 | 0.00 | 65 | 1016.0 |
| 20260903152405 | 24 | 289 | 11.3 | 22.5 | 0.00 | 0.00 | 0.00 | 65 | 1016.1 |
| 20260903151904 | 24 | 252 | 12.9 | 22.5 | 0.00 | 0.00 | 0.00 | 64 | 1016.2 |
| 20260903151402 | 25 | 290 | 9.7 | 22.5 | 0.00 | 0.00 | 0.00 | 64 | 1016.1 |
| 20260903150902 | 25 | 305 | 11.3 | 29.0 | 0.00 | 0.00 | 0.00 | 63 | 1016.1 |
| 20260903150402 | 25 | 259 | 14.5 | 29.0 | 0.00 | 0.00 | 0.00 | 64 | 1016.1 |
| 20260903145859 | 24 | 286 | 16.1 | 27.4 | 0.00 | 0.00 | 0.00 | 65 | 1016.1 |
| 20260903145400 | 23 | 266 | 17.7 | 29.0 | 0.00 | 0.00 | 0.00 | 68 | 1016.0 |
| 20260903144857 | 23 | 269 | 14.5 | 29.0 | 0.00 | 0.00 | 0.00 | 67 | 1016.2 |
| 20260903144400 | 23 | 231 | 16.1 | 22.5 | 0.00 | 0.00 | 0.00 | 68 | 1016.3 |
| 20260903143856 | 23 | 271 | 9.7 | 16.1 | 0.00 | 0.00 | 0.00 | 68 | 1016.2 |
| 20260903143358 | 23 | 288 | 9.7 | 19.3 | 0.00 | 0.00 | 0.00 | 68 | 1016.4 |
| 20260903142856 | 23 | 255 | 11.3 | 19.3 | 0.00 | 0.00 | 0.00 | 67 | 1016.4 |
| 20260903142357 | 23 | 279 | 9.7 | 22.5 | 0.00 | 0.00 | 0.00 | 66 | 1016.4 |
| 20260903141855 | 24 | 265 | 11.3 | 22.5 | 0.00 | 0.00 | 0.00 | 65 | 1016.5 |
| 20260903141354 | 24 | 258 | 12.9 | 19.3 | 0.00 | 0.00 | 0.00 | 65 | 1016.5 |
| 20260903140854 | 24 | 262 | 11.3 | 20.9 | 0.00 | 0.00 | 0.00 | 66 | 1016.6 |
| 20260903140356 | 24 | 250 | 9.7 | 22.5 | 0.00 | 0.00 | 0.00 | 64 | 1016.5 |
| 20260903135853 | 25 | 261 | 12.9 | 22.5 | 0.00 | 0.00 | 0.00 | 64 | 1016.6 |
| 20260903135352 | 25 | 259 | 9.7 | 25.7 | 0.00 | 0.00 | 0.00 | 62 | 1016.6 |
| 20260903134848 | 25 | 271 | 9.7 | 25.7 | 0.00 | 0.00 | 0.00 | 63 | 1016.6 |
| 20260903134349 | 25 | 275 | 9.7 | 24.1 | 0.00 | 0.00 | 0.00 | 65 | 1016.6 |
| 20260903133856 | 24 | 269 | 4.8 | 27.4 | 0.00 | 0.00 | 0.00 | 63 | 1016.9 |
| 20260903133655 | 24 | 275 | 17.7 | 27.4 | 0.00 | 0.00 | 0.00 | 62 | 1016.7 |
| 20260903132849 | 23 | 298 | 16.1 | 25.7 | 0.00 | 0.00 | 0.00 | 63 | 1016.5 |
| 20260903132350 | 24 | 231 | 19.3 | 32.2 | 0.00 | 0.00 | 0.00 | 63 | 1016.8 |
| 20260903131851 | 24 | 230 | 9.7 | 32.2 | 0.00 | 0.00 | 0.00 | 63 | 1016.9 |
| 20260903131349 | 25 | 282 | 11.3 | 22.5 | 0.00 | 0.00 | 0.00 | 66 | 1016.9 |
| 20260903130847 | 24 | 295 | 20.9 | 29.0 | 0.00 | 0.00 | 0.00 | 64 | 1017.0 |
| 20260903130649 | 24 | 317 | 16.1 | 37.0 | 0.00 | 0.00 | 0.00 | 64 | 1016.9 |
| 20260903125847 | 24 | 258 | 17.7 | 37.0 | 0.00 | 0.00 | 0.00 | 65 | 1016.9 |
| 20260903125345 | 25 | 261 | 16.1 | 19.3 | 0.00 | 0.00 | 0.00 | 65 | 1016.9 |
| 20260903124842 | 24 | 241 | 11.3 | 24.1 | 0.00 | 0.00 | 0.00 | 67 | 1016.8 |
| 20260903124342 | 23 | 243 | 14.5 | 24.1 | 0.00 | 0.00 | 0.00 | 67 | 1017.1 |
| 20260903123844 | 24 | 230 | 14.5 | 22.5 | 0.00 | 0.00 | 0.00 | 67 | 1017.2 |
| 20260903123344 | 23 | 274 | 11.3 | 22.5 | 0.00 | 0.00 | 0.00 | 67 | 1017.0 |
| 20260903123217 | 23 | 278 | 11.3 | 24.1 | 0.00 | 0.00 | 0.00 | 67 | 1017.1 |
| 20260903122345 | 23 | 240 | 14.5 | 24.1 | 0.00 | 0.00 | 0.00 | 68 | 1017.0 |
| 20260903121850 | 23 | 240 | 11.3 | 16.1 | 0.00 | 0.00 | 0.00 | 68 | 1017.1 |
| 20260903121345 | 22 | 295 | 9.7 | 19.3 | 0.00 | 0.00 | 0.00 | 69 | 1017.2 |
| 20260903120842 | 22 | 285 | 9.7 | 19.3 | 0.00 | 0.00 | 0.00 | 69 | 1017.2 |
| 20260903120350 | 22 | 243 | 9.7 | 20.9 | 0.00 | 0.00 | 0.00 | 69 | 1017.2 |
| 20260903115843 | 22 | 251 | 12.9 | 22.5 | 0.00 | 0.00 | 0.00 | 68 | 1017.3 |
| 20260903115338 | 22 | 264 | 17.7 | 24.1 | 0.00 | 0.00 | 0.00 | 68 | 1017.2 |
| 20260903114837 | 22 | 279 | 14.5 | 25.7 | 0.00 | 0.00 | 0.00 | 70 | 1017.3 |
| 20260903114527 | 21 | 237 | 11.3 | 19.3 | 0.00 | 0.00 | 0.00 | 72 | 1017.1 |
| 20260903114442 | 22 | 264 | 12.9 | 25.7 | 0.00 | 0.00 | 0.00 | 70 | 1017.2 |
| 20260903113338 | 21 | 245 | 9.7 | 30.6 | 0.00 | 0.00 | 0.00 | 73 | 1017.2 |
| 20260903112835 | 21 | 268 | 8.0 | 30.6 | 0.00 | 0.00 | 0.00 | 73 | 1017.2 |
| 20260903112334 | 21 | 275 | 9.7 | 22.5 | 0.00 | 0.00 | 0.00 | 72 | 1017.2 |
| 20260903112152 | 22 | 247 | 14.5 | 22.5 | 0.00 | 0.00 | 0.00 | 72 | 1017.2 |
| 20260903111336 | 22 | 299 | 6.4 | 20.9 | 0.00 | 0.00 | 0.00 | 72 | 1017.2 |
| 20260903111155 | 22 | 295 | 12.9 | 20.9 | 0.00 | 0.00 | 0.00 | 71 | 1017.2 |
| 20260903110341 | 22 | 233 | 14.5 | 20.9 | 0.00 | 0.00 | 0.00 | 72 | 1017.2 |
| 20260903105833 | 22 | 247 | 11.3 | 25.7 | 0.00 | 0.00 | 0.00 | 72 | 1017.2 |
| 20260903105332 | 22 | 245 | 12.9 | 30.6 | 0.00 | 0.00 | 0.00 | 73 | 1017.2 |
| 20260903104832 | 21 | 258 | 17.7 | 30.6 | 0.00 | 0.00 | 0.00 | 72 | 1017.3 |
| 20260903104630 | 21 | 220 | 12.9 | 25.7 | 0.00 | 0.00 | 0.00 | 74 | 1017.3 |
| 20260903103829 | 22 | 319 | 17.7 | 25.7 | 0.00 | 0.00 | 0.00 | 74 | 1017.3 |
| 20260903103333 | 21 | 264 | 12.9 | 20.9 | 0.00 | 0.00 | 0.00 | 74 | 1017.2 |
| 20260903102827 | 21 | 317 | 9.7 | 27.4 | 0.00 | 0.00 | 0.00 | 74 | 1017.1 |
| 20260903102327 | 21 | 248 | 16.1 | 27.4 | 0.00 | 0.00 | 0.00 | 76 | 1017.2 |
| 20260903101830 | 21 | 272 | 11.3 | 19.3 | 0.00 | 0.00 | 0.00 | 76 | 1017.3 |
| 20260903101624 | 21 | 278 | 6.4 | 22.5 | 0.00 | 0.00 | 0.00 | 78 | 1017.3 |
| 20260903100826 | 21 | 230 | 9.7 | 22.5 | 0.00 | 0.00 | 0.00 | 77 | 1017.3 |
| 20260903100324 | 20 | 245 | 8.0 | 17.7 | 0.00 | 0.00 | 0.00 | 79 | 1017.4 |
| 20260903095823 | 20 | 283 | 8.0 | 19.3 | 0.00 | 0.00 | 0.00 | 79 | 1017.4 |
| 20260903095619 | 20 | 312 | 9.7 | 22.5 | 0.00 | 0.00 | 0.00 | 78 | 1017.4 |
| 20260903094822 | 20 | 268 | 9.7 | 22.5 | 0.00 | 0.00 | 0.00 | 78 | 1017.6 |
| 20260903094321 | 21 | 286 | 11.3 | 22.5 | 0.00 | 0.00 | 0.00 | 78 | 1017.4 |
| 20260903093823 | 20 | 279 | 11.3 | 22.5 | 0.00 | 0.00 | 0.00 | 79 | 1017.3 |
| 20260903093323 | 20 | 278 | 12.9 | 25.7 | 0.00 | 0.00 | 0.00 | 78 | 1017.3 |
| 20260903092821 | 20 | 285 | 11.3 | 25.7 | 0.00 | 0.00 | 0.00 | 78 | 1017.2 |
| 20260903092323 | 20 | 303 | 9.7 | 24.1 | 0.00 | 0.00 | 0.00 | 79 | 1017.2 |
| 20260903091824 | 20 | 265 | 14.5 | 27.4 | 0.00 | 0.00 | 0.00 | 79 | 1017.2 |
| 20260903091625 | 20 | 258 | 17.7 | 27.4 | 0.00 | 0.00 | 0.00 | 79 | 1017.1 |
| 20260903090818 | 20 | 248 | 6.4 | 19.3 | 0.00 | 0.00 | 0.00 | 81 | 1017.2 |
| 20260903090321 | 20 | 247 | 9.7 | 19.3 | 0.00 | 0.00 | 0.00 | 81 | 1017.3 |
| 20260903085817 | 20 | 298 | 11.3 | 17.7 | 0.00 | 0.00 | 0.00 | 82 | 1017.2 |
| 20260903085318 | 20 | 299 | 6.4 | 17.7 | 0.00 | 0.00 | 0.00 | 82 | 1017.2 |
| 20260903084816 | 20 | 300 | 9.7 | 19.3 | 0.00 | 0.00 | 0.00 | 83 | 1017.3 |
| 20260903084314 | 19 | 285 | 6.4 | 19.3 | 0.00 | 0.00 | 0.00 | 84 | 1017.2 |
| 20260903083814 | 19 | 0.0 | 0.0 | 0.00 | 0.00 | 0.00 | 84 | 1017.3 | |
| 20260903083610 | 19 | 0.0 | 0.0 | 0.00 | 0.00 | 0.00 | 83 | 1017.2 | |
| 20260903082813 | 19 | 0.0 | 0.0 | 0.00 | 0.00 | 0.00 | 84 | 1017.2 | |
| 20260903082312 | 19 | 0.0 | 0.0 | 0.00 | 0.00 | 0.00 | 85 | 1017.3 | |
| 20260903081810 | 19 | 0.0 | 0.0 | 0.00 | 0.00 | 0.00 | 85 | 1017.1 | |
| 20260903081310 | 19 | 0.0 | 0.0 | 0.00 | 0.00 | 0.00 | 85 | 1017.0 | |
| 20260903080810 | 19 | 0.0 | 0.0 | 0.00 | 0.00 | 0.00 | 85 | 1016.9 | |
| 20260903080322 | 19 | 0.0 | 0.0 | 0.00 | 0.00 | 0.00 | 85 | 1016.8 | |
| 20260903075807 | 19 | 0.0 | 0.0 | 0.00 | 0.00 | 0.00 | 86 | 1016.7 | |
| 20260903075605 | 19 | 0.0 | 0.0 | 0.00 | 0.00 | 0.00 | 86 | 1016.5 | |
| 20260903074809 | 18 | 0.0 | 0.0 | 0.00 | 0.00 | 0.00 | 86 | 1016.5 | |
| 20260903074307 | 18 | 0.0 | 0.0 | 0.00 | 0.00 | 0.00 | 86 | 1016.4 | |
| 20260903074123 | 18 | 0.0 | 0.0 | 0.00 | 0.00 | 0.00 | 86 | 1016.3 | |
| 20260903073306 | 18 | 0.0 | 0.0 | 0.00 | 0.00 | 0.00 | 86 | 1016.2 | |
| 20260903073128 | 18 | 0.0 | 0.0 | 0.00 | 0.00 | 0.00 | 86 | 1016.1 | |
| 20260903072306 | 18 | 0.0 | 0.0 | 0.00 | 0.00 | 0.00 | 86 | 1016.0 | |
| 20260903071803 | 18 | 0.0 | 0.0 | 0.00 | 0.00 | 0.00 | 85 | 1015.9 | |
| 20260903071305 | 18 | 0.0 | 0.0 | 0.00 | 0.00 | 0.00 | 85 | 1015.9 | |
| 20260903070807 | 18 | 0.0 | 0.0 | 0.00 | 0.00 | 0.00 | 85 | 1015.8 | |
| 20260903070558 | 18 | 0.0 | 0.0 | 0.00 | 0.00 | 0.00 | 84 | 1015.8 | |
| 20260903070147 | 18 | 0.0 | 0.0 | 0.00 | 0.00 | 0.00 | 84 | 1015.9 | |
| 20260903065305 | 18 | 0.0 | 0.0 | 0.00 | 0.00 | 0.00 | 84 | 1015.7 | |
| 20260903064802 | 18 | 0.0 | 0.0 | 0.00 | 0.00 | 0.00 | 85 | 1015.6 | |
| 20260903064602 | 18 | 0.0 | 0.0 | 0.00 | 0.00 | 0.00 | 85 | 1015.6 | |
| 20260903064118 | 18 | 0.0 | 0.0 | 0.00 | 0.00 | 0.00 | 86 | 1015.7 | |
| 20260903063555 | 18 | 0.0 | 0.0 | 0.00 | 0.00 | 0.00 | 86 | 1015.7 | |
| 20260903062758 | 18 | 0.0 | 0.0 | 0.00 | 0.00 | 0.00 | 86 | 1015.8 | |
| 20260903062259 | 18 | 0.0 | 0.0 | 0.00 | 0.00 | 0.00 | 87 | 1015.7 | |
| 20260903061758 | 18 | 0.0 | 0.0 | 0.00 | 0.00 | 0.00 | 87 | 1015.9 | |
| 20260903061257 | 18 | 0.0 | 0.0 | 0.00 | 0.00 | 0.00 | 88 | 1015.8 | |
| 20260903061119 | 18 | 0.0 | 0.0 | 0.00 | 0.00 | 0.00 | 88 | 1015.8 | |
| 20260903060257 | 18 | 0.0 | 0.0 | 0.00 | 0.00 | 0.00 | 88 | 1015.9 | |
| 20260903055755 | 18 | 0.0 | 0.0 | 0.00 | 0.00 | 0.00 | 89 | 1015.9 | |
| 20260903055255 | 18 | 0.0 | 0.0 | 0.00 | 0.00 | 0.00 | 89 | 1015.7 | |
| 20260903054753 | 18 | 0.0 | 0.0 | 0.00 | 0.00 | 0.00 | 89 | 1015.7 | |
| 20260903054250 | 18 | 0.0 | 0.0 | 0.00 | 0.00 | 0.00 | 90 | 1015.8 | |
| 20260903054109 | 18 | 0.0 | 0.0 | 0.00 | 0.00 | 0.00 | 90 | 1015.7 | |
| 20260903053250 | 18 | 0.0 | 0.0 | 0.00 | 0.00 | 0.00 | 90 | 1015.7 | |
| 20260903052746 | 18 | 0.0 | 0.0 | 0.00 | 0.00 | 0.00 | 90 | 1015.7 | |
| 20260903052248 | 18 | 0.0 | 0.0 | 0.00 | 0.00 | 0.00 | 90 | 1015.8 | |
| 20260903051746 | 18 | 0.0 | 0.0 | 0.00 | 0.00 | 0.00 | 90 | 1015.5 | |
| 20260903051246 | 18 | 0.0 | 0.0 | 0.00 | 0.00 | 0.00 | 90 | 1015.5 | |
| 20260903050746 | 18 | 0.0 | 0.0 | 0.00 | 0.00 | 0.00 | 91 | 1015.5 | |
| 20260903050300 | 18 | 0.0 | 0.0 | 0.00 | 0.00 | 0.00 | 91 | 1015.5 | |
| 20260903045747 | 18 | 0.0 | 0.0 | 0.00 | 0.00 | 0.00 | 91 | 1015.6 | |
| 20260903045246 | 17 | 0.0 | 0.0 | 0.00 | 0.00 | 0.00 | 91 | 1015.5 | |
| 20260903044746 | 17 | 0.0 | 0.0 | 0.00 | 0.00 | 0.00 | 92 | 1015.4 | |
| 20260903044246 | 17 | 0.0 | 0.0 | 0.00 | 0.00 | 0.00 | 92 | 1015.5 | |
| 20260903043746 | 17 | 0.0 | 0.0 | 0.00 | 0.00 | 0.00 | 92 | 1015.6 | |
| 20260903043245 | 17 | 0.0 | 0.0 | 0.00 | 0.00 | 0.00 | 92 | 1015.6 | |
| 20260903042745 | 17 | 0.0 | 0.0 | 0.00 | 0.00 | 0.00 | 92 | 1015.6 | |
| 20260903042247 | 17 | 0.0 | 0.0 | 0.00 | 0.00 | 0.00 | 92 | 1015.4 | |
| 20260903041747 | 17 | 0.0 | 0.0 | 0.00 | 0.00 | 0.00 | 92 | 1015.4 | |
| 20260903041553 | 17 | 0.0 | 0.0 | 0.00 | 0.00 | 0.00 | 92 | 1015.3 | |
| 20260903040749 | 17 | 0.0 | 0.0 | 0.00 | 0.00 | 0.00 | 92 | 1015.4 | |
| 20260903040549 | 17 | 0.0 | 0.0 | 0.00 | 0.00 | 0.00 | 92 | 1015.4 | |
| 20260903035747 | 17 | 0.0 | 0.0 | 0.00 | 0.00 | 0.00 | 92 | 1015.4 | |
| 20260903035249 | 17 | 0.0 | 0.0 | 0.00 | 0.00 | 0.00 | 92 | 1015.5 | |
| 20260903034746 | 17 | 0.0 | 0.0 | 0.00 | 0.00 | 0.00 | 92 | 1015.4 | |
| 20260903034245 | 17 | 0.0 | 0.0 | 0.00 | 0.00 | 0.00 | 92 | 1015.4 | |
| 20260903033745 | 17 | 0.0 | 0.0 | 0.00 | 0.00 | 0.00 | 91 | 1015.6 | |
| 20260903033245 | 17 | 0.0 | 0.0 | 0.00 | 0.00 | 0.00 | 91 | 1015.3 | |
| 20260903032754 | 17 | 0.0 | 0.0 | 0.00 | 0.00 | 0.00 | 91 | 1015.4 | |
| 20260903032547 | 17 | 0.0 | 0.0 | 0.00 | 0.00 | 0.00 | 91 | 1015.5 | |
| 20260903031745 | 17 | 0.0 | 0.0 | 0.00 | 0.00 | 0.00 | 91 | 1015.6 | |
| 20260903031245 | 17 | 0.0 | 0.0 | 0.00 | 0.00 | 0.00 | 91 | 1015.4 | |
| 20260903030747 | 17 | 0.0 | 0.0 | 0.00 | 0.00 | 0.00 | 90 | 1015.7 | |
| 20260903030255 | 17 | 0.0 | 0.0 | 0.00 | 0.00 | 0.00 | 90 | 1015.6 | |
| 20260903025743 | 17 | 0.0 | 0.0 | 0.00 | 0.00 | 0.00 | 90 | 1015.7 | |
| 20260903025245 | 17 | 0.0 | 0.0 | 0.00 | 0.00 | 0.00 | 90 | 1015.5 | |
| 20260903025100 | 18 | 0.0 | 0.0 | 0.00 | 0.00 | 0.00 | 90 | 1015.5 | |
| 20260903024548 | 17 | 0.0 | 0.0 | 0.00 | 0.00 | 0.00 | 90 | 1015.6 | |
| 20260903023745 | 18 | 0.0 | 0.0 | 0.00 | 0.00 | 0.00 | 90 | 1015.6 | |
| 20260903023244 | 18 | 0.0 | 0.0 | 0.00 | 0.00 | 0.00 | 90 | 1015.5 | |
| 20260903022744 | 18 | 0.0 | 0.0 | 0.00 | 0.00 | 0.00 | 90 | 1015.6 | |
| 20260903022245 | 18 | 0.0 | 0.0 | 0.00 | 0.00 | 0.00 | 90 | 1015.6 | |
| 20260903021744 | 18 | 223 | 8.0 | 14.5 | 0.00 | 0.00 | 0.00 | 90 | 1015.5 |
| 20260903021243 | 18 | 223 | 8.0 | 19.3 | 0.00 | 0.00 | 0.00 | 90 | 1015.5 |
| 20260903020746 | 18 | 226 | 8.0 | 19.3 | 0.00 | 0.00 | 0.00 | 90 | 1015.2 |
| 20260903020244 | 18 | 250 | 6.4 | 19.3 | 0.00 | 0.00 | 0.00 | 90 | 1015.4 |
| 20260903015743 | 18 | 237 | 9.7 | 20.9 | 0.00 | 0.00 | 0.00 | 90 | 1015.4 |
| 20260903015241 | 18 | 262 | 8.0 | 20.9 | 0.00 | 0.00 | 0.00 | 90 | 1015.5 |
| 20260903014743 | 18 | 252 | 12.9 | 20.9 | 0.00 | 0.00 | 0.00 | 90 | 1015.6 |
| 20260903014242 | 18 | 231 | 6.4 | 16.1 | 0.00 | 0.00 | 0.00 | 90 | 1015.6 |
| 20260903013741 | 18 | 219 | 9.7 | 20.9 | 0.00 | 0.00 | 0.00 | 90 | 1015.7 |
| 20260903013242 | 18 | 244 | 11.3 | 20.9 | 0.00 | 0.00 | 0.00 | 90 | 1015.6 |
| 20260903013117 | 18 | 216 | 11.3 | 19.3 | 0.00 | 0.00 | 0.00 | 90 | 1015.6 |
| 20260903012240 | 18 | 251 | 6.4 | 20.9 | 0.00 | 0.00 | 0.00 | 90 | 1015.7 |
| 20260903011740 | 18 | 262 | 8.0 | 20.9 | 0.00 | 0.00 | 0.00 | 90 | 1015.7 |
| 20260903011239 | 18 | 251 | 8.0 | 14.5 | 0.00 | 0.00 | 0.00 | 90 | 1015.7 |
| 20260903010741 | 18 | 212 | 8.0 | 19.3 | 0.00 | 0.00 | 0.00 | 90 | 1015.7 |
| 20260903010239 | 18 | 269 | 8.0 | 19.3 | 0.00 | 0.00 | 0.00 | 90 | 1015.8 |
| 20260903005739 | 18 | 268 | 6.4 | 17.7 | 0.00 | 0.00 | 0.00 | 90 | 1015.9 |
| 20260903005242 | 18 | 243 | 11.3 | 17.7 | 0.00 | 0.00 | 0.00 | 90 | 1015.9 |
| 20260903004742 | 18 | 244 | 8.0 | 16.1 | 0.00 | 0.00 | 0.00 | 90 | 1016.1 |
| 20260903004242 | 18 | 241 | 8.0 | 25.7 | 0.00 | 0.00 | 0.00 | 90 | 1016.1 |
| 20260903003742 | 18 | 255 | 8.0 | 25.7 | 0.00 | 0.00 | 0.00 | 90 | 1016.2 |
| 20260903003241 | 18 | 231 | 9.7 | 17.7 | 0.00 | 0.00 | 0.00 | 90 | 1016.1 |
| 20260903002740 | 18 | 261 | 11.3 | 20.9 | 0.00 | 0.00 | 0.00 | 90 | 1016.2 |
| 20260903002241 | 18 | 250 | 9.7 | 22.5 | 0.00 | 0.00 | 0.00 | 90 | 1016.0 |
| 20260903001739 | 18 | 212 | 11.3 | 22.5 | 0.00 | 0.00 | 0.00 | 90 | 1016.1 |
| 20260903001240 | 18 | 252 | 11.3 | 20.9 | 0.00 | 0.00 | 0.00 | 90 | 1016.1 |
| 20260903000833 | 18 | 244 | 11.3 | 20.9 | 0.00 | 0.00 | 0.00 | 90 | 1016.2 |
| 20260902235737 | 18 | 233 | 9.7 | 17.7 | 0.00 | 0.00 | 0.00 | 90 | 1016.3 |
| 20260902235540 | 18 | 251 | 11.3 | 20.9 | 0.00 | 0.00 | 0.00 | 90 | 1016.2 |
| 20260902234737 | 18 | 248 | 9.7 | 20.9 | 0.00 | 0.00 | 0.00 | 90 | 1016.0 |
| 20260902234232 | 18 | 251 | 9.7 | 17.7 | 0.00 | 0.00 | 0.00 | 90 | 1016.1 |
| 20260902233731 | 18 | 216 | 9.7 | 17.7 | 0.00 | 0.00 | 0.00 | 90 | 1016.1 |
| 20260902233232 | 18 | 251 | 9.7 | 24.1 | 0.00 | 0.00 | 0.00 | 90 | 1016.1 |
| 20260902232730 | 18 | 248 | 14.5 | 24.1 | 0.00 | 0.00 | 0.00 | 90 | 1016.1 |
| 20260902232231 | 18 | 223 | 12.9 | 20.9 | 0.00 | 0.00 | 0.00 | 90 | 1016.0 |
| 20260902231729 | 18 | 226 | 9.7 | 20.9 | 0.00 | 0.00 | 0.00 | 90 | 1016.1 |
| 20260902231230 | 18 | 255 | 9.7 | 20.9 | 0.00 | 0.00 | 0.00 | 90 | 1016.3 |
| 20260902231102 | 18 | 250 | 12.9 | 19.3 | 0.00 | 0.00 | 0.00 | 90 | 1016.4 |
| 20260902230230 | 18 | 233 | 8.0 | 16.1 | 0.00 | 0.00 | 0.00 | 90 | 1016.4 |
| 20260902225731 | 18 | 252 | 9.7 | 16.1 | 0.00 | 0.00 | 0.00 | 90 | 1016.3 |
| 20260902225223 | 18 | 237 | 11.3 | 17.7 | 0.00 | 0.00 | 0.00 | 90 | 1016.2 |
| 20260902225053 | 18 | 195 | 9.7 | 17.7 | 0.00 | 0.00 | 0.00 | 90 | 1016.2 |
| 20260902224223 | 18 | 254 | 9.7 | 19.3 | 0.00 | 0.00 | 0.00 | 90 | 1016.3 |
| 20260902223719 | 18 | 237 | 11.3 | 19.3 | 0.00 | 0.00 | 0.00 | 90 | 1016.3 |
| 20260902223221 | 18 | 247 | 11.3 | 19.3 | 0.00 | 0.00 | 0.00 | 90 | 1016.3 |
| 20260902223100 | 18 | 252 | 11.3 | 17.7 | 0.00 | 0.00 | 0.00 | 90 | 1016.4 |